CDT,Max TemperatureF,Mean TemperatureF,Min TemperatureF,Max Dew PointF,MeanDew PointF,Min DewpointF,Max Humidity, Mean Humidity, Min Humidity, Max Sea Level PressureIn, Mean Sea Level PressureIn, Min Sea Level PressureIn, Max VisibilityMiles, Mean VisibilityMiles, Min VisibilityMiles, Max Wind SpeedMPH, Mean Wind SpeedMPH, Max Gust SpeedMPH,PrecipitationIn, CloudCover, Events, WindDirDegrees
2013-10-1,78,66,54,52,47,41,86,53,26,29.96,29.90,29.77,10,10,3,14,9,20,0.00,0,,358
2013-10-2,86,72,57,63,56,44,88,61,37,29.97,29.91,29.83,10,10,7,21,7,25,0.01,2,Thunderstorm,137
2013-10-3,76,68,60,65,60,58,96,79,58,29.88,29.79,29.74,10,10,4,17,8,30,0.79,4,Rain-Thunderstorm,14
2013-10-4,80,66,51,69,60,40,94,78,50,29.88,29.76,29.63,10,10,4,24,14,31,0.46,6,Rain-Thunderstorm,117
2013-10-5,52,46,41,40,33,31,84,62,45,29.93,29.87,29.79,10,10,10,24,15,33,0.00,4,Rain,225
2013-10-6,49,44,40,46,41,37,93,86,70,29.99,29.86,29.75,10,8,2,20,10,25,0.07,7,Rain,290
2013-10-7,75,57,40,42,38,33,88,56,24,30.08,30.02,29.98,10,10,10,16,7,20,0.00,0,,220
2013-10-8,78,63,49,45,42,40,74,48,28,29.98,29.94,29.89,10,10,10,25,14,32,0.00,0,,169
2013-10-9,77,66,55,49,47,45,69,53,34,30.00,29.97,29.93,10,10,10,18,14,26,0.00,0,,154
2013-10-10,79,68,57,53,50,47,74,55,37,29.99,29.91,29.79,10,10,10,22,12,30,0.00,0,,151
2013-10-11,79,65,51,57,49,36,80,57,22,29.90,29.73,29.62,10,10,10,30,17,38,0.00,2,Rain,184
2013-10-12,66,54,43,42,33,26,76,46,22,30.28,30.12,29.90,10,10,7,14,6,23,0.00,0,,287
2013-10-13,68,54,39,36,33,30,74,45,26,30.42,30.34,30.29,10,10,10,10,6,10,0.00,0,,89
2013-10-14,59,52,46,58,44,32,96,73,44,30.29,30.00,29.71,10,9,2,28,12,40,0.72,7,Rain-Thunderstorm,125
2013-10-15,53,49,44,50,39,36,85,75,68,30.05,29.93,29.78,10,10,10,20,15,29,0.00,8,,267
2013-10-16,55,49,43,39,35,26,84,68,33,30.07,30.01,29.95,10,10,10,13,8,20,0.00,4,,281
2013-10-17,59,47,35,40,36,32,87,70,43,30.04,29.93,29.87,10,10,10,20,5,28,0.00,3,,270
2013-10-18,50,42,33,37,30,26,88,68,39,30.12,30.05,29.99,10,10,5,10,7,,0.00,1,,269
2013-10-19,61,46,31,36,32,28,89,63,31,29.98,29.87,29.80,10,10,10,16,6,24,0.00,1,,227
2013-10-20,64,52,39,40,37,33,80,61,33,30.01,29.80,29.70,10,10,10,17,7,28,0.00,5,,270
2013-10-21,51,40,30,36,32,28,92,73,49,30.09,30.02,29.93,10,10,10,14,6,18,0.00,4,,261
2013-10-22,46,42,38,41,36,32,91,80,73,30.11,29.98,29.85,10,10,7,16,6,21,0.00,7,,340
2013-10-23,43,37,31,39,34,30,96,88,79,30.19,30.10,30.03,10,9,2,13,4,20,0.05,6,Rain-Snow,296
2013-10-24,48,38,28,32,27,23,92,66,38,30.39,30.33,30.20,10,10,10,14,7,18,0.00,1,,296
2013-10-25,59,43,27,32,28,22,82,58,36,30.39,30.24,30.04,10,10,10,25,10,30,0.00,1,,191
2013-10-26,50,42,34,35,30,25,71,58,40,30.22,30.13,30.00,10,10,10,17,11,22,0.00,1,,308
2013-10-27,70,50,29,36,31,25,86,55,26,30.12,29.94,29.82,10,10,10,18,8,23,0.00,0,,177
2013-10-28,52,46,39,39,34,32,79,66,50,30.19,30.12,29.95,10,10,7,22,13,28,0.00,2,Rain-Thunderstorm,41
2013-10-29,52,46,41,51,45,37,96,92,80,30.20,30.03,29.95,10,4,0,16,10,23,0.08,8,Fog-Rain,67
2013-10-30,58,50,41,57,47,39,97,95,91,29.97,29.85,29.77,10,3,0,29,6,38,0.02,8,Fog-Rain-Thunderstorm,336
2013-10-31,57,45,34,42,37,33,96,79,45,29.75,29.60,29.50,10,8,2,15,5,22,0.00,2,,268